,,,PA_Meas_PMT16A,,PR_Meas_QMR101_102,,RH_Meas_QMH101,,SR_Meas_QMS101,,TA_Meas_QMH101,,GenWind,,GenWind,
date,time,status,PA,status,PR,status,RH,status,SR,status,TA,status,DirAvg,status,SpdAvg,
2010-06-07, 00:00:05,VALID,1005.56,VALID,0,VALID,98.1761,VALID,0.100563,VALID,23.2913,VALID,8,VALID,0.421875,
2010-06-07, 00:01:05,VALID,1005.57,VALID,0,VALID,98.1837,VALID,0,VALID,23.3125,VALID,8,VALID,0.482422,
2010-06-07, 00:02:05,VALID,1005.52,VALID,0,VALID,98.1913,VALID,0,VALID,23.2931,VALID,7,VALID,0.825781,
2010-06-07, 00:03:05,VALID,1005.5,VALID,0,VALID,98.1761,VALID,0.100563,VALID,23.2931,VALID,7,VALID,0.632422,
2010-06-07, 00:04:05,VALID,1005.48,VALID,0,VALID,98.1837,VALID,0.100563,VALID,23.2931,VALID,7,VALID,0.310547,
2010-06-07, 00:05:05,VALID,1005.48,VALID,0,VALID,98.1761,VALID,0,VALID,23.2736,VALID,7,VALID,0.380859,
2010-06-07, 00:06:05,VALID,1005.43,VALID,0,VALID,98.2142,VALID,0.100563,VALID,23.2541,VALID,7,VALID,0.541797,
2010-06-07, 00:07:05,VALID,1005.41,VALID,0,VALID,98.2066,VALID,0.100563,VALID,23.2329,VALID,7,VALID,0.502734,
2010-06-07, 00:08:05,VALID,1005.42,VALID,0,VALID,98.2066,VALID,0,VALID,23.2541,VALID,7,VALID,0.533594,
2010-06-07, 00:09:05,VALID,1005.42,VALID,0,VALID,98.1837,VALID,0,VALID,23.2152,VALID,7,VALID,0.599609,
2010-06-07, 00:10:05,VALID,1005.38,VALID,0,VALID,98.1684,VALID,0,VALID,23.2541,VALID,6,VALID,0.367188,
2010-06-07, 00:11:05,VALID,1005.39,VALID,0,VALID,98.1913,VALID,0.100563,VALID,23.2736,VALID,6,VALID,0.177344,
2010-06-07, 00:12:05,VALID,1005.35,VALID,0,VALID,98.1684,VALID,0,VALID,23.2736,VALID,6,VALID,0.249219,
2010-06-07, 00:13:05,VALID,1005.35,VALID,0,VALID,98.1761,VALID,0,VALID,23.2931,VALID,6,VALID,0.475391,
2010-06-07, 00:14:05,VALID,1005.36,VALID,0,VALID,98.1303,VALID,0,VALID,23.332,VALID,6,VALID,0.297266,
2010-06-07, 00:15:05,VALID,1005.35,VALID,0,VALID,98.1379,VALID,0,VALID,23.3514,VALID,6,VALID,0.294922,
2010-06-07, 00:16:05,VALID,1005.31,VALID,0,VALID,98.1227,VALID,0,VALID,23.4134,VALID,6,VALID,0.308984,
2010-06-07, 00:17:05,VALID,1005.33,VALID,0,VALID,98.0387,VALID,0,VALID,23.5284,VALID,6,VALID,0.441016,
2010-06-07, 00:18:05,VALID,1005.34,VALID,0,VALID,98.0616,VALID,0,VALID,23.5284,VALID,13,VALID,0.279687,
2010-06-07, 00:19:05,VALID,1005.33,VALID,0,VALID,98.0159,VALID,0,VALID,23.6257,VALID,14,VALID,0.565625,
2010-06-07, 00:20:05,VALID,1005.3,VALID,0,VALID,97.9167,VALID,0,VALID,23.8398,VALID,36,VALID,0.410547,
2010-06-07, 00:21:05,VALID,1005.3,VALID,0,VALID,97.9548,VALID,0,VALID,23.8787,VALID,36,VALID,0.336719,
2010-06-07, 00:22:05,VALID,1005.34,VALID,0,VALID,97.9853,VALID,0,VALID,23.9566,VALID,36,VALID,0.214844,
2010-06-07, 00:23:05,VALID,1005.34,VALID,0,VALID,98.0235,VALID,0,VALID,24.015,VALID,36,VALID,0.195313,
2010-06-07, 00:24:05,VALID,1005.33,VALID,0,VALID,98.1074,VALID,0,VALID,24.015,VALID,36,VALID,0.278906,
2010-06-07, 00:25:05,VALID,1005.33,VALID,0,VALID,98.1608,VALID,0,VALID,23.9937,VALID,36,VALID,0.301562,
2010-06-07, 00:26:05,VALID,1005.35,VALID,0,VALID,98.1379,VALID,0,VALID,24.0132,VALID,36,VALID,0.210156,
2010-06-07, 00:27:05,VALID,1005.38,VALID,0,VALID,98.1608,VALID,0,VALID,24.0539,VALID,36,VALID,0,
2010-06-07, 00:28:05,VALID,1005.38,VALID,0,VALID,98.1837,VALID,0,VALID,24.0734,VALID,36,VALID,0,
2010-06-07, 00:29:05,VALID,1005.37,VALID,0,VALID,98.1837,VALID,0,VALID,24.0539,VALID,36,VALID,0.0753906,
2010-06-07, 00:30:05,VALID,1005.42,VALID,0,VALID,98.115,VALID,0,VALID,24.015,VALID,36,VALID,0.3,
2010-06-07, 00:31:05,VALID,1005.38,VALID,0,VALID,98.0387,VALID,0,VALID,23.9742,VALID,20,VALID,0.549219,
2010-06-07, 00:32:05,VALID,1005.4,VALID,0,VALID,97.9319,VALID,0,VALID,23.9335,VALID,357,VALID,0.591016,
2010-06-07, 00:33:05,VALID,1005.37,VALID,0,VALID,97.909,VALID,0,VALID,23.9353,VALID,356,VALID,0.489062,
2010-06-07, 00:34:05,VALID,1005.34,VALID,0,VALID,97.9167,VALID,0,VALID,23.9937,VALID,1,VALID,0.796484,
2010-06-07, 00:35:05,VALID,1005.34,VALID,0,VALID,97.9167,VALID,0,VALID,24.0521,VALID,353,VALID,0.327344,
2010-06-07, 00:36:05,VALID,1005.33,VALID,0,VALID,97.9014,VALID,0,VALID,24.0308,VALID,354,VALID,0.862891,
2010-06-07, 00:37:05,VALID,1005.29,VALID,0,VALID,97.8557,VALID,0,VALID,24.1105,VALID,335,VALID,0.588281,
2010-06-07, 00:38:05,VALID,1005.3,VALID,0,VALID,97.7946,VALID,0,VALID,24.13,VALID,356,VALID,0.554688,
2010-06-07, 00:39:05,VALID,1005.29,VALID,0,VALID,97.581,VALID,0,VALID,24.1105,VALID,356,VALID,0.654688,
2010-06-07, 00:40:05,VALID,1005.26,VALID,0,VALID,97.4818,VALID,0,VALID,24.091,VALID,356,VALID,0.341797,
2010-06-07, 00:41:05,VALID,1005.26,VALID,0,VALID,97.4589,VALID,0,VALID,24.0326,VALID,356,VALID,0.590625,
2010-06-07, 00:42:05,VALID,1005.24,VALID,0,VALID,97.4589,VALID,0,VALID,23.9919,VALID,356,VALID,0.373437,
2010-06-07, 00:43:05,VALID,1005.23,VALID,0,VALID,97.52,VALID,0,VALID,23.9742,VALID,357,VALID,0.586719,
2010-06-07, 00:44:05,VALID,1005.18,VALID,0,VALID,97.52,VALID,0.100563,VALID,23.8964,VALID,357,VALID,0.5875,
2010-06-07, 00:45:05,VALID,1005.13,VALID,0,VALID,97.5963,VALID,0,VALID,23.8362,VALID,357,VALID,0.565625,
2010-06-07, 00:46:05,VALID,1005.11,VALID,0,VALID,97.7107,VALID,0.100563,VALID,23.8167,VALID,357,VALID,0.514453,
2010-06-07, 00:47:05,VALID,1005.08,VALID,0,VALID,97.7794,VALID,0,VALID,23.7796,VALID,357,VALID,0.781641,
2010-06-07, 00:48:05,VALID,1005.06,VALID,0,VALID,97.8022,VALID,0,VALID,23.7407,VALID,357,VALID,0.535547,
2010-06-07, 00:49:05,VALID,1005.04,VALID,0,VALID,97.848,VALID,0,VALID,23.6805,VALID,357,VALID,0.669531,
2010-06-07, 00:50:05,VALID,1005.01,VALID,0,VALID,97.9167,VALID,0,VALID,23.7,VALID,360,VALID,0.742969,
2010-06-07, 00:51:05,VALID,1005.01,VALID,0,VALID,98.0082,VALID,0,VALID,23.7407,VALID,360,VALID,0.645312,
2010-06-07, 00:52:05,VALID,1004.96,VALID,0,VALID,98.0311,VALID,0,VALID,23.6823,VALID,360,VALID,0.693359,
2010-06-07, 00:53:05,VALID,1004.95,VALID,0,VALID,98.054,VALID,0,VALID,23.6434,VALID,360,VALID,0.664453,
2010-06-07, 00:54:05,VALID,1004.94,VALID,0,VALID,98.0464,VALID,0,VALID,23.6044,VALID,9,VALID,0.469922,
2010-06-07, 00:55:05,VALID,1004.93,VALID,0,VALID,98.0616,VALID,0,VALID,23.5832,VALID,9,VALID,0.336719,
2010-06-07, 00:56:05,VALID,1004.93,VALID,0,VALID,98.0769,VALID,0,VALID,23.585,VALID,17,VALID,0.423828,
2010-06-07, 00:57:05,VALID,1004.91,VALID,0,VALID,98.0921,VALID,0,VALID,23.6044,VALID,17,VALID,0.327344,
2010-06-07, 00:58:05,VALID,1004.91,VALID,0,VALID,98.1303,VALID,0,VALID,23.585,VALID,17,VALID,0.284766,
2010-06-07, 00:59:05,VALID,1004.92,VALID,0,VALID,98.115,VALID,0,VALID,23.585,VALID,17,VALID,0.197266,
2010-06-07, 01:00:05,VALID,1004.9,VALID,0,VALID,98.1379,VALID,0,VALID,23.585,VALID,17,VALID,0.197266,
2010-06-07, 01:01:05,VALID,1004.87,VALID,0,VALID,98.1455,VALID,0,VALID,23.6044,VALID,17,VALID,0.015625,
2010-06-07, 01:02:04,VALID,1004.85,VALID,0,VALID,98.1303,VALID,0,VALID,23.6239,VALID,17,VALID,0.356641,
2010-06-07, 01:03:04,VALID,1004.84,VALID,0,VALID,98.1303,VALID,0,VALID,23.6239,VALID,17,VALID,0.373047,
2010-06-07, 01:04:04,VALID,1004.82,VALID,0,VALID,98.1532,VALID,0,VALID,23.661,VALID,17,VALID,0.351953,
2010-06-07, 01:05:04,VALID,1004.8,VALID,0,VALID,98.1455,VALID,0,VALID,23.661,VALID,17,VALID,0.612891,
2010-06-07, 01:06:04,VALID,1004.81,VALID,0,VALID,98.1532,VALID,0.100563,VALID,23.6823,VALID,23,VALID,0.598047,
2010-06-07, 01:07:04,VALID,1004.79,VALID,0,VALID,98.1455,VALID,0.100563,VALID,23.7017,VALID,23,VALID,0.337109,
2010-06-07, 01:08:04,VALID,1004.79,VALID,0,VALID,98.1684,VALID,0,VALID,23.7017,VALID,23,VALID,0.460938,
2010-06-07, 01:09:04,VALID,1004.77,VALID,0,VALID,98.1227,VALID,0,VALID,23.7194,VALID,24,VALID,0.442578,
2010-06-07, 01:10:04,VALID,1004.78,VALID,0,VALID,98.1532,VALID,0,VALID,23.7796,VALID,24,VALID,0.370313,
2010-06-07, 01:11:04,VALID,1004.76,VALID,0,VALID,98.1837,VALID,0,VALID,23.7601,VALID,24,VALID,0.511328,
2010-06-07, 01:12:04,VALID,1004.74,VALID,0,VALID,98.1455,VALID,0,VALID,23.7796,VALID,24,VALID,0.367578,
2010-06-07, 01:13:04,VALID,1004.72,VALID,0,VALID,98.1837,VALID,0,VALID,23.7583,VALID,25,VALID,0.496094,
2010-06-07, 01:14:04,VALID,1004.72,VALID,0,VALID,98.1913,VALID,0.100563,VALID,23.7796,VALID,25,VALID,0.457031,
2010-06-07, 01:15:04,VALID,1004.71,VALID,0,VALID,98.1837,VALID,0,VALID,23.7389,VALID,25,VALID,0.370703,
2010-06-07, 01:16:04,VALID,1004.69,VALID,0,VALID,98.1837,VALID,0,VALID,23.7619,VALID,25,VALID,0.313281,
2010-06-07, 01:17:04,VALID,1004.68,VALID,0,VALID,98.2066,VALID,0,VALID,23.6805,VALID,25,VALID,0.225,
2010-06-07, 01:18:04,VALID,1004.64,VALID,0,VALID,98.2218,VALID,0,VALID,23.6628,VALID,25,VALID,0.24375,
2010-06-07, 01:19:04,VALID,1004.65,VALID,0,VALID,98.2218,VALID,0,VALID,23.6434,VALID,25,VALID,0.366797,
2010-06-07, 01:20:04,VALID,1004.63,VALID,0,VALID,98.199,VALID,0,VALID,23.6026,VALID,25,VALID,0.516406,
2010-06-07, 01:21:04,VALID,1004.6,VALID,0,VALID,98.1684,VALID,0,VALID,23.6044,VALID,25,VALID,0.396875,
2010-06-07, 01:22:04,VALID,1004.61,VALID,0,VALID,98.1837,VALID,0,VALID,23.6239,VALID,25,VALID,0.567578,
2010-06-07, 01:23:04,VALID,1004.64,VALID,0,VALID,98.1837,VALID,0,VALID,23.6257,VALID,25,VALID,0.185547,
2010-06-07, 01:24:04,VALID,1004.63,VALID,0,VALID,98.1837,VALID,0,VALID,23.6239,VALID,25,VALID,0.351563,
2010-06-07, 01:25:04,VALID,1004.65,VALID,0,VALID,98.1608,VALID,0,VALID,23.6823,VALID,25,VALID,0.464063,
2010-06-07, 01:26:04,VALID,1004.65,VALID,0,VALID,98.1684,VALID,0,VALID,23.7017,VALID,25,VALID,0.0671875,
2010-06-07, 01:27:04,VALID,1004.66,VALID,0,VALID,98.1684,VALID,0,VALID,23.7,VALID,25,VALID,0.216797,
2010-06-07, 01:28:04,VALID,1004.63,VALID,0,VALID,98.1532,VALID,0,VALID,23.7601,VALID,25,VALID,0.456641,
2010-06-07, 01:29:04,VALID,1004.64,VALID,0,VALID,98.1532,VALID,0,VALID,23.7778,VALID,25,VALID,0.769531,
2010-06-07, 01:30:04,VALID,1004.63,VALID,0,VALID,98.1532,VALID,0,VALID,23.7973,VALID,39,VALID,0.511719,
2010-06-07, 01:31:04,VALID,1004.63,VALID,0,VALID,98.1379,VALID,0.100563,VALID,23.8769,VALID,39,VALID,0.680859,
2010-06-07, 01:32:04,VALID,1004.65,VALID,0,VALID,98.1684,VALID,0,VALID,23.8964,VALID,39,VALID,0.329297,
2010-06-07, 01:33:04,VALID,1004.65,VALID,0,VALID,98.1608,VALID,0,VALID,23.9159,VALID,47,VALID,0.373828,
2010-06-07, 01:34:04,VALID,1004.64,VALID,0,VALID,98.1532,VALID,0,VALID,23.9353,VALID,47,VALID,0.179297,
2010-06-07, 01:35:04,VALID,1004.64,VALID,0,VALID,98.1455,VALID,0.100563,VALID,23.9742,VALID,47,VALID,0.371875,
2010-06-07, 01:36:04,VALID,1004.63,VALID,0,VALID,98.1532,VALID,0,VALID,23.9937,VALID,49,VALID,0.450781,
2010-06-07, 01:37:04,VALID,1004.6,VALID,0,VALID,98.1303,VALID,0,VALID,24.0326,VALID,50,VALID,0.306641,
2010-06-07, 01:38:04,VALID,1004.59,VALID,0,VALID,98.1379,VALID,0,VALID,24.0716,VALID,50,VALID,0.322266,
2010-06-07, 01:39:04,VALID,1004.57,VALID,0,VALID,98.0998,VALID,0.100563,VALID,24.1105,VALID,49,VALID,0.636328,
2010-06-07, 01:40:04,VALID,1004.53,VALID,0,VALID,98.0998,VALID,0,VALID,24.1494,VALID,49,VALID,0.271875,
2010-06-07, 01:41:04,VALID,1004.53,VALID,0,VALID,98.0921,VALID,0,VALID,24.1689,VALID,49,VALID,0.344141,
2010-06-07, 01:42:04,VALID,1004.49,VALID,0,VALID,98.0387,VALID,0,VALID,24.1476,VALID,49,VALID,0.367578,
2010-06-07, 01:43:04,VALID,1004.5,VALID,0,VALID,98.0159,VALID,0,VALID,24.1689,VALID,49,VALID,0.297656,
2010-06-07, 01:44:04,VALID,1004.52,VALID,0,VALID,97.9853,VALID,0,VALID,24.1884,VALID,49,VALID,0.320703,
2010-06-07, 01:45:04,VALID,1004.52,VALID,0,VALID,97.9548,VALID,0,VALID,24.1884,VALID,49,VALID,0.567969,
2010-06-07, 01:46:04,VALID,1004.48,VALID,0,VALID,97.9319,VALID,0,VALID,24.2078,VALID,49,VALID,0.2,
2010-06-07, 01:47:04,VALID,1004.51,VALID,0,VALID,97.9014,VALID,0,VALID,24.1671,VALID,49,VALID,0.184375,
2010-06-07, 01:48:04,VALID,1004.45,VALID,0,VALID,97.848,VALID,0.100563,VALID,24.1671,VALID,49,VALID,0.0734375,
2010-06-07, 01:49:04,VALID,1004.46,VALID,0,VALID,97.8022,VALID,0.100563,VALID,24.1884,VALID,49,VALID,0.176172,
2010-06-07, 01:50:04,VALID,1004.47,VALID,0,VALID,97.7946,VALID,0,VALID,24.1476,VALID,49,VALID,0.444922,
2010-06-07, 01:51:04,VALID,1004.45,VALID,0,VALID,97.7641,VALID,0,VALID,24.13,VALID,49,VALID,0.372656,
2010-06-07, 01:52:04,VALID,1004.48,VALID,0,VALID,97.7565,VALID,0,VALID,24.0697,VALID,49,VALID,0.350391,
2010-06-07, 01:53:04,VALID,1004.44,VALID,0,VALID,97.7107,VALID,0,VALID,24.0716,VALID,49,VALID,0.29375,
2010-06-07, 01:54:04,VALID,1004.41,VALID,0,VALID,97.7412,VALID,0,VALID,24.0308,VALID,49,VALID,0.19375,
2010-06-07, 01:55:04,VALID,1004.37,VALID,0,VALID,97.7183,VALID,0,VALID,23.9919,VALID,49,VALID,0.306641,
2010-06-07, 01:56:04,VALID,1004.36,VALID,0,VALID,97.726,VALID,0.100563,VALID,23.9548,VALID,49,VALID,0.298438,
2010-06-07, 01:57:04,VALID,1004.36,VALID,0,VALID,97.7031,VALID,0,VALID,23.9353,VALID,49,VALID,0.321094,
2010-06-07, 01:58:04,VALID,1004.39,VALID,0,VALID,97.7183,VALID,0.100563,VALID,23.8769,VALID,49,VALID,0.265625,
2010-06-07, 01:59:04,VALID,1004.35,VALID,0,VALID,97.7107,VALID,0,VALID,23.7973,VALID,49,VALID,0.309766,
2010-06-07, 02:00:04,VALID,1004.37,VALID,0,VALID,97.7565,VALID,0,VALID,23.7778,VALID,49,VALID,0.4,
2010-06-07, 02:01:04,VALID,1004.35,VALID,0,VALID,97.787,VALID,0.100563,VALID,23.7583,VALID,49,VALID,0.224219,
2010-06-07, 02:02:04,VALID,1004.33,VALID,0,VALID,97.8709,VALID,0,VALID,23.7601,VALID,49,VALID,0.330078,
2010-06-07, 02:03:04,VALID,1004.34,VALID,0,VALID,97.9243,VALID,0.100563,VALID,23.7194,VALID,49,VALID,0.208203,
2010-06-07, 02:04:04,VALID,1004.32,VALID,0,VALID,97.9472,VALID,0,VALID,23.7407,VALID,49,VALID,0.373437,
2010-06-07, 02:05:04,VALID,1004.31,VALID,0,VALID,97.993,VALID,0,VALID,23.7194,VALID,49,VALID,0.355859,
2010-06-07, 02:06:04,VALID,1004.29,VALID,0,VALID,98.0311,VALID,0,VALID,23.7601,VALID,48,VALID,0.341016,
2010-06-07, 02:07:04,VALID,1004.29,VALID,0,VALID,98.054,VALID,0,VALID,23.7194,VALID,48,VALID,0.403906,
2010-06-07, 02:08:04,VALID,1004.3,VALID,0,VALID,98.0845,VALID,0.100563,VALID,23.7601,VALID,48,VALID,0.433203,
2010-06-07, 02:09:04,VALID,1004.31,VALID,0,VALID,98.0845,VALID,0,VALID,23.7389,VALID,48,VALID,0.325,
2010-06-07, 02:10:04,VALID,1004.26,VALID,0,VALID,98.0921,VALID,0.100563,VALID,23.7565,VALID,48,VALID,0.285937,
2010-06-07, 02:11:04,VALID,1004.31,VALID,0,VALID,98.1074,VALID,0,VALID,23.8185,VALID,48,VALID,0.396875,
2010-06-07, 02:12:04,VALID,1004.3,VALID,0,VALID,98.1379,VALID,0.100563,VALID,23.8167,VALID,48,VALID,0.354688,
2010-06-07, 02:13:04,VALID,1004.26,VALID,0,VALID,98.1455,VALID,0,VALID,23.8769,VALID,48,VALID,0.333594,
2010-06-07, 02:14:04,VALID,1004.24,VALID,0,VALID,98.1608,VALID,0,VALID,23.8575,VALID,48,VALID,0.499609,
2010-06-07, 02:15:04,VALID,1004.24,VALID,0,VALID,98.1684,VALID,0.100563,VALID,23.8769,VALID,48,VALID,0.529688,
2010-06-07, 02:16:04,VALID,1004.22,VALID,0,VALID,98.1608,VALID,0,VALID,23.8575,VALID,48,VALID,0.455469,
2010-06-07, 02:17:04,VALID,1004.2,VALID,0,VALID,98.1684,VALID,0,VALID,23.8575,VALID,48,VALID,0.274609,
2010-06-07, 02:18:04,VALID,1004.21,VALID,0,VALID,98.1761,VALID,0,VALID,23.838,VALID,48,VALID,0.203906,
2010-06-07, 02:19:04,VALID,1004.2,VALID,0,VALID,98.1532,VALID,0,VALID,23.838,VALID,48,VALID,0.228125,
2010-06-07, 02:20:04,VALID,1004.19,VALID,0,VALID,98.1455,VALID,0,VALID,23.838,VALID,48,VALID,0.339844,
2010-06-07, 02:21:04,VALID,1004.15,VALID,0,VALID,98.1532,VALID,0,VALID,23.8787,VALID,48,VALID,0.208984,
2010-06-07, 02:22:04,VALID,1004.14,VALID,0,VALID,98.1532,VALID,0,VALID,23.8575,VALID,48,VALID,0.56875,
2010-06-07, 02:23:04,VALID,1004.15,VALID,0,VALID,98.1455,VALID,0,VALID,23.8575,VALID,48,VALID,0.344141,
2010-06-07, 02:24:04,VALID,1004.14,VALID,0,VALID,98.1532,VALID,0,VALID,23.8185,VALID,48,VALID,0.525,
2010-06-07, 02:25:04,VALID,1004.09,VALID,0,VALID,98.1379,VALID,0,VALID,23.8009,VALID,48,VALID,0.359375,
2010-06-07, 02:26:04,VALID,1004.09,VALID,0,VALID,98.115,VALID,0,VALID,23.7619,VALID,48,VALID,0.411719,
2010-06-07, 02:27:04,VALID,1004.11,VALID,0,VALID,98.0845,VALID,0,VALID,23.7017,VALID,48,VALID,0.369141,
2010-06-07, 02:28:04,VALID,1004.09,VALID,0,VALID,98.0693,VALID,0,VALID,23.6434,VALID,48,VALID,0.288672,
2010-06-07, 02:29:04,VALID,1004.09,VALID,0,VALID,98.0921,VALID,0,VALID,23.6434,VALID,48,VALID,0.291797,
2010-06-07, 02:30:04,VALID,1004.09,VALID,0,VALID,98.0921,VALID,0,VALID,23.6841,VALID,48,VALID,0.0121094,
2010-06-07, 02:31:04,VALID,1004.09,VALID,0,VALID,98.115,VALID,0,VALID,23.7,VALID,48,VALID,0,
2010-06-07, 02:32:04,VALID,1004.05,VALID,0,VALID,98.1379,VALID,0.100563,VALID,23.7407,VALID,48,VALID,0,
2010-06-07, 02:33:04,VALID,1004.04,VALID,0,VALID,98.1684,VALID,0,VALID,23.7796,VALID,48,VALID,0,
2010-06-07, 02:34:04,VALID,1003.99,VALID,0,VALID,98.1608,VALID,0,VALID,23.7796,VALID,48,VALID,0,
2010-06-07, 02:35:04,VALID,1004.01,VALID,0,VALID,98.1684,VALID,0,VALID,23.7991,VALID,48,VALID,0,
2010-06-07, 02:36:04,VALID,1003.99,VALID,0,VALID,98.1684,VALID,0.100563,VALID,23.7973,VALID,48,VALID,0.353906,
2010-06-07, 02:37:04,VALID,1003.98,VALID,0,VALID,98.1837,VALID,0.100563,VALID,23.8167,VALID,48,VALID,0.557031,
2010-06-07, 02:38:04,VALID,1003.96,VALID,0,VALID,98.1761,VALID,0.100563,VALID,23.8167,VALID,48,VALID,0.425391,
2010-06-07, 02:39:04,VALID,1003.97,VALID,0,VALID,98.199,VALID,0.100563,VALID,23.8185,VALID,48,VALID,0.315234,
2010-06-07, 02:40:04,VALID,1003.97,VALID,0,VALID,98.1837,VALID,0.100563,VALID,23.8185,VALID,48,VALID,0.125391,
2010-06-07, 02:41:04,VALID,1003.96,VALID,0,VALID,98.1913,VALID,0.100563,VALID,23.8185,VALID,48,VALID,0.278906,
2010-06-07, 02:42:04,VALID,1004,VALID,0,VALID,98.1761,VALID,0.100563,VALID,23.8167,VALID,48,VALID,0.366797,
2010-06-07, 02:43:04,VALID,1003.97,VALID,0,VALID,98.1913,VALID,0.100563,VALID,23.8575,VALID,48,VALID,0,
2010-06-07, 02:44:04,VALID,1003.99,VALID,0,VALID,98.1761,VALID,0.100563,VALID,23.8556,VALID,48,VALID,0.175781,
2010-06-07, 02:45:04,VALID,1003.96,VALID,0,VALID,98.1684,VALID,0,VALID,23.8946,VALID,48,VALID,0.148828,
2010-06-07, 02:46:04,VALID,1003.95,VALID,0,VALID,98.1608,VALID,0.100563,VALID,23.914,VALID,48,VALID,0.199609,
2010-06-07, 02:47:04,VALID,1003.97,VALID,0,VALID,98.1761,VALID,0,VALID,23.9353,VALID,48,VALID,0.344531,
2010-06-07, 02:48:04,VALID,1003.96,VALID,0,VALID,98.1761,VALID,0.100563,VALID,23.9335,VALID,48,VALID,0.4375,
2010-06-07, 02:49:04,VALID,1003.97,VALID,0,VALID,98.1837,VALID,0.100563,VALID,23.914,VALID,35,VALID,0.551953,
2010-06-07, 02:50:04,VALID,1003.98,VALID,0,VALID,98.1761,VALID,0.100563,VALID,23.914,VALID,35,VALID,0.441406,
2010-06-07, 02:51:04,VALID,1003.95,VALID,0,VALID,98.1837,VALID,0,VALID,23.9353,VALID,35,VALID,0.492969,
2010-06-07, 02:52:04,VALID,1003.96,VALID,0,VALID,98.1761,VALID,0,VALID,23.8751,VALID,35,VALID,0.243359,
2010-06-07, 02:53:04,VALID,1003.96,VALID,0,VALID,98.1761,VALID,0.100563,VALID,23.9159,VALID,35,VALID,0.3125,
2010-06-07, 02:54:04,VALID,1003.97,VALID,0,VALID,98.1608,VALID,0,VALID,23.9159,VALID,35,VALID,0.282422,
2010-06-07, 02:55:04,VALID,1003.95,VALID,0,VALID,98.1761,VALID,0.100563,VALID,23.914,VALID,35,VALID,0.00234375,
2010-06-07, 02:56:04,VALID,1003.95,VALID,0,VALID,98.1532,VALID,0.100563,VALID,23.9548,VALID,35,VALID,0.444531,
2010-06-07, 02:57:04,VALID,1003.96,VALID,0,VALID,98.1532,VALID,0.100563,VALID,23.9548,VALID,35,VALID,0.678125,
2010-06-07, 02:58:04,VALID,1003.94,VALID,0,VALID,98.1684,VALID,0.100563,VALID,23.9548,VALID,35,VALID,0.363672,
2010-06-07, 02:59:04,VALID,1003.93,VALID,0,VALID,98.1761,VALID,0.100563,VALID,23.9159,VALID,35,VALID,0.446484,
2010-06-07, 03:00:04,VALID,1003.89,VALID,0,VALID,98.1608,VALID,0.100563,VALID,23.8751,VALID,35,VALID,0.431641,
2010-06-07, 03:01:04,VALID,1003.9,VALID,0,VALID,98.1379,VALID,0.100563,VALID,23.838,VALID,35,VALID,0.333594,
2010-06-07, 03:02:04,VALID,1003.91,VALID,0,VALID,98.1227,VALID,0,VALID,23.7973,VALID,35,VALID,0.413672,
2010-06-07, 03:03:04,VALID,1003.89,VALID,0,VALID,98.1074,VALID,0.100563,VALID,23.7778,VALID,35,VALID,0.372656,
2010-06-07, 03:04:04,VALID,1003.9,VALID,0,VALID,98.115,VALID,0,VALID,23.7991,VALID,35,VALID,0.347656,
2010-06-07, 03:05:04,VALID,1003.89,VALID,0,VALID,98.115,VALID,0.100563,VALID,23.7778,VALID,35,VALID,0.432031,
2010-06-07, 03:06:04,VALID,1003.89,VALID,0,VALID,98.1379,VALID,0.100563,VALID,23.7583,VALID,35,VALID,0.296484,
2010-06-07, 03:07:04,VALID,1003.87,VALID,0,VALID,98.1455,VALID,0.100563,VALID,23.7778,VALID,35,VALID,0.666016,
2010-06-07, 03:08:04,VALID,1003.88,VALID,0,VALID,98.1761,VALID,0,VALID,23.7796,VALID,35,VALID,0.535156,
2010-06-07, 03:09:04,VALID,1003.89,VALID,0,VALID,98.1761,VALID,0.100563,VALID,23.7583,VALID,35,VALID,0.454688,
2010-06-07, 03:10:04,VALID,1003.87,VALID,0,VALID,98.1761,VALID,0.100563,VALID,23.7991,VALID,35,VALID,0.50625,
2010-06-07, 03:11:04,VALID,1003.87,VALID,0,VALID,98.1837,VALID,0.100563,VALID,23.7601,VALID,35,VALID,0.484375,
2010-06-07, 03:12:04,VALID,1003.85,VALID,0,VALID,98.2066,VALID,0.100563,VALID,23.7583,VALID,35,VALID,0.244141,
2010-06-07, 03:13:04,VALID,1003.83,VALID,0,VALID,98.1837,VALID,0.100563,VALID,23.7407,VALID,35,VALID,0.235938,
2010-06-07, 03:14:04,VALID,1003.82,VALID,0,VALID,98.1913,VALID,0.100563,VALID,23.7389,VALID,35,VALID,0.254297,
2010-06-07, 03:15:04,VALID,1003.84,VALID,0,VALID,98.1608,VALID,0,VALID,23.7778,VALID,35,VALID,0.303906,
2010-06-07, 03:16:04,VALID,1003.82,VALID,0,VALID,98.199,VALID,0,VALID,23.7991,VALID,35,VALID,0.192969,
2010-06-07, 03:17:04,VALID,1003.81,VALID,0,VALID,98.1913,VALID,0,VALID,23.8593,VALID,35,VALID,0.278125,
2010-06-07, 03:18:04,VALID,1003.81,VALID,0,VALID,98.1913,VALID,0,VALID,23.8575,VALID,35,VALID,0.277734,
2010-06-07, 03:19:04,VALID,1003.8,VALID,0,VALID,98.1913,VALID,0,VALID,23.8982,VALID,35,VALID,0.311328,
2010-06-07, 03:20:04,VALID,1003.79,VALID,0,VALID,98.1913,VALID,0,VALID,23.9159,VALID,35,VALID,0.458984,
2010-06-07, 03:21:04,VALID,1003.78,VALID,0,VALID,98.2066,VALID,0,VALID,23.9177,VALID,35,VALID,0.246094,
2010-06-07, 03:22:04,VALID,1003.76,VALID,0,VALID,98.2447,VALID,0,VALID,23.8982,VALID,35,VALID,0.346484,
2010-06-07, 03:23:04,VALID,1003.8,VALID,0,VALID,98.2447,VALID,0,VALID,23.8787,VALID,35,VALID,0.326953,
2010-06-07, 03:24:04,VALID,1003.78,VALID,0,VALID,98.2295,VALID,0,VALID,23.8575,VALID,35,VALID,0.287891,
2010-06-07, 03:25:04,VALID,1003.77,VALID,0,VALID,98.2295,VALID,0,VALID,23.838,VALID,35,VALID,0,
2010-06-07, 03:26:04,VALID,1003.81,VALID,0,VALID,98.2447,VALID,0,VALID,23.8185,VALID,35,VALID,0,
2010-06-07, 03:27:04,VALID,1003.75,VALID,0,VALID,98.2371,VALID,0,VALID,23.8398,VALID,35,VALID,0,
2010-06-07, 03:28:04,VALID,1003.77,VALID,0,VALID,98.2066,VALID,0,VALID,23.8185,VALID,35,VALID,0,
2010-06-07, 03:29:04,VALID,1003.77,VALID,0,VALID,98.2371,VALID,0,VALID,23.8611,VALID,35,VALID,0,
2010-06-07, 03:30:04,VALID,1003.75,VALID,0,VALID,98.2371,VALID,0,VALID,23.8203,VALID,35,VALID,0,
2010-06-07, 03:31:04,VALID,1003.75,VALID,0,VALID,98.2371,VALID,0,VALID,23.8009,VALID,35,VALID,0,
2010-06-07, 03:32:04,VALID,1003.75,VALID,0,VALID,98.2371,VALID,0,VALID,23.7601,VALID,35,VALID,0,
2010-06-07, 03:33:04,VALID,1003.73,VALID,0,VALID,98.2295,VALID,0,VALID,23.7814,VALID,35,VALID,0.433984,
2010-06-07, 03:34:04,VALID,1003.73,VALID,0,VALID,98.2218,VALID,0,VALID,23.8009,VALID,35,VALID,0.521094,
2010-06-07, 03:35:04,VALID,1003.72,VALID,0,VALID,98.2371,VALID,0,VALID,23.7814,VALID,35,VALID,0.459766,
2010-06-07, 03:36:04,VALID,1003.7,VALID,0,VALID,98.2371,VALID,0,VALID,23.8009,VALID,35,VALID,0.412891,
2010-06-07, 03:37:04,VALID,1003.72,VALID,0,VALID,98.2295,VALID,0,VALID,23.7814,VALID,35,VALID,0.547656,
2010-06-07, 03:38:04,VALID,1003.71,VALID,0,VALID,98.2371,VALID,0,VALID,23.7425,VALID,35,VALID,0.463281,
2010-06-07, 03:39:04,VALID,1003.73,VALID,0,VALID,98.2371,VALID,0,VALID,23.7017,VALID,35,VALID,0.455469,
2010-06-07, 03:40:04,VALID,1003.72,VALID,0,VALID,98.26,VALID,0,VALID,23.6841,VALID,35,VALID,0.396875,
2010-06-07, 03:41:04,VALID,1003.75,VALID,0,VALID,98.2523,VALID,0,VALID,23.6452,VALID,35,VALID,0.191406,
2010-06-07, 03:42:04,VALID,1003.75,VALID,0,VALID,98.2523,VALID,0,VALID,23.6044,VALID,35,VALID,0.188281,
2010-06-07, 03:43:04,VALID,1003.76,VALID,0,VALID,98.2295,VALID,0,VALID,23.6257,VALID,35,VALID,0.189844,
2010-06-07, 03:44:04,VALID,1003.78,VALID,0,VALID,98.2371,VALID,0,VALID,23.6664,VALID,35,VALID,0.228516,